Location: Cluny
(50.9333°N, 112.8167°W)
Time: 00:43:12
(UTC-06:00)

Amateur Radio Satellites - All Passes

Search period start: 25 July 2014 00:13
Search period end: 26 July 2014 00:13
Location: Cluny, 50.9333°N, 112.8167°W

Satellite Date Start Highest point End Downlink Frequencies (MHz)
Time Altitude Azimuth
FUNcube-1 25 Jul 00:28:31 00:30:54 14° 272° (W) 00:33:16 145.950 - 145.970 MHz USB
UOSAT-12 25 Jul 00:31:41 00:36:27 89° 50° (NE) 00:41:10 437.025 FM, 437.400 FM
MaSat-1 25 Jul 00:49:50 00:53:46 32° 317° (NW) 00:58:12 437.345 MHz
RS-15 25 Jul 01:05:01 01:15:05 44° 248° (WSW) 01:25:28 29.354 - 29.394 USB, Beacon 29.352 USB
PCSat 25 Jul 01:22:21 01:24:49 13° 103° (ESE) 01:27:17 145.825 MHz
ISS 25 Jul 01:43:07 01:44:42 13° 138° (SE) 01:46:18 145.800 FM
Oscar 16 25 Jul 01:45:30 01:48:02 14° 86° (E) 01:50:33 437.025 USB, Beacon 2401.1428
JAS-1B 25 Jul 02:01:59 02:06:04 13° 71° (ENE) 02:09:59 435.800 - 435.900 CW/SSB
Lituanica SAT-1 25 Jul 02:05:46 02:07:50 50° 160° (SSE) 02:09:53 437.275 MHz beacon
AO-Echo 25 Jul 02:10:50 02:11:54 11° 82° (E) 02:12:58 ?
UOSAT-12 25 Jul 02:13:01 02:15:59 17° 248° (WSW) 02:18:56 437.025 FM, 437.400 FM
OPAL 25 Jul 02:13:52 02:14:55 11° 44° (NE) 02:15:59 ?
AO-27 25 Jul 02:15:43 02:17:27 12° 84° (E) 02:19:12 436.795 MHz FM
Uribyol 2 25 Jul 02:17:56 02:20:08 13° 85° (E) 02:22:20 436.500 FM
Sapphire 25 Jul 02:28:32 02:33:31 39° 115° (ESE) 02:38:32 437.095 MHz 1200 baud AX-25 AFSK
MaSat-1 25 Jul 02:30:51 02:32:46 12° 341° (NNW) 02:34:45 437.345 MHz
Oscar 19 25 Jul 02:55:28 03:00:29 48° 99° (E) 03:05:28 437.125 CW, 437.150 USB
PCSat 25 Jul 03:01:54 03:07:17 71° 123° (ESE) 03:12:43 145.825 MHz
ISS 25 Jul 03:17:34 03:20:50 50° 156° (SSE) 03:24:08 145.800 FM
Oscar 16 25 Jul 03:23:01 03:28:12 83° 105° (ESE) 03:33:23 437.025 USB, Beacon 2401.1428
TMSAT-1 25 Jul 03:29:52 03:33:20 17° 88° (E) 03:36:46 436.925 FM
ITAMSAT 1 25 Jul 03:34:44 03:39:48 51° 100° (E) 03:44:50 435.822 SSB
Lituanica SAT-1 25 Jul 03:38:21 03:40:27 67° 2° (N) 03:42:33 437.275 MHz beacon
AO-Echo 25 Jul 03:46:32 03:51:44 68° 102° (ESE) 03:56:44 ?
OPAL 25 Jul 03:47:59 03:52:44 50° 65° (ENE) 03:57:32 ?
JAS-1B 25 Jul 03:49:40 03:59:12 53° 96° (E) 04:07:36 435.800 - 435.900 CW/SSB
Gurwin Techsat 1B 25 Jul 03:50:32 03:55:20 33° 95° (E) 04:00:05 435.225 FM
AO-27 25 Jul 03:52:43 03:57:57 72° 104° (ESE) 04:03:07 436.795 MHz FM
Uribyol 2 25 Jul 03:55:18 04:00:31 78° 104° (ESE) 04:05:40 436.500 FM
Sapphire 25 Jul 04:11:41 04:16:54 47° 316° (NW) 04:22:10 437.095 MHz 1200 baud AX-25 AFSK
Oscar 10/S400 25 Jul 04:33:29 05:33:09 43° 209° (SSW) 11:25:07 145.825 - 145.975 CW/USB, Beacon 145.810 USB
Oscar 19 25 Jul 04:35:12 04:39:39 30° 299° (WNW) 04:44:06 437.125 CW, 437.150 USB
PCSat 25 Jul 04:46:24 04:51:11 31° 325° (NW) 04:56:01 145.825 MHz
AO-7 25 Jul 04:51:17 04:58:05 27° 91° (E) 05:04:49 29.400 - 29.500 MHz
ISS 25 Jul 04:54:09 04:57:31 78° 356° (N) 05:00:54 145.800 FM
Oscar 16 25 Jul 05:03:24 05:06:59 19° 305° (NW) 05:10:34 437.025 USB, Beacon 2401.1428
TMSAT-1 25 Jul 05:08:36 05:13:56 82° 287° (WNW) 05:19:14 436.925 FM
Lituanica SAT-1 25 Jul 05:11:00 05:13:04 56° 198° (SSW) 05:15:08 437.275 MHz beacon
ITAMSAT 1 25 Jul 05:14:39 05:19:05 29° 300° (WNW) 05:23:30 435.822 SSB
AO-Echo 25 Jul 05:26:03 05:30:03 23° 303° (WNW) 05:33:56 ?
OPAL 25 Jul 05:27:43 05:31:53 27° 264° (W) 05:36:05 ?
Gurwin Techsat 1B 25 Jul 05:30:25 05:35:27 44° 294° (WNW) 05:40:27 435.225 FM
AO-27 25 Jul 05:33:04 05:36:59 22° 303° (WNW) 05:40:53 436.795 MHz FM
Uribyol 2 25 Jul 05:35:43 05:39:27 21° 304° (NW) 05:43:10 436.500 FM
Uosat F 25 Jul 05:39:44 05:44:39 51° 100° (E) 05:49:32 435.120 FM
JAS-1B 25 Jul 05:40:17 05:49:42 53° 299° (WNW) 05:58:10 435.800 - 435.900 CW/SSB
MaSat-1 25 Jul 05:48:35 05:52:02 17° 30° (NNE) 05:55:31 437.345 MHz
Sapphire 25 Jul 05:57:57 06:01:40 18° 340° (NNW) 06:05:25 437.095 MHz 1200 baud AX-25 AFSK
STRAND 1 25 Jul 06:04:41 06:08:57 27° 60° (ENE) 06:13:13 ?
KITSAT 1 25 Jul 06:16:12 06:20:02 14° 98° (E) 06:23:52 435.175 FM
ISS 25 Jul 06:30:56 06:34:19 78° 196° (SSW) 06:37:41 145.800 FM
PCSat 25 Jul 06:33:11 06:36:22 15° 350° (N) 06:39:34 145.825 MHz
AO-7 25 Jul 06:43:27 06:51:51 84° 292° (WNW) 07:00:10 29.400 - 29.500 MHz
Lituanica SAT-1 25 Jul 06:44:52 06:45:18 10° 217° (SW) 06:45:43 437.275 MHz beacon
TMSAT-1 25 Jul 06:49:49 06:53:06 17° 307° (NW) 06:56:23 436.925 FM
JAS-2 25 Jul 06:55:47 07:01:00 26° 88° (E) 07:05:43 435.800 - 435.900 CW/SSB, 435.910 FM
Uosat F 25 Jul 07:18:59 07:23:13 28° 300° (WNW) 07:27:25 435.120 FM
MaSat-1 25 Jul 07:25:21 07:30:34 53° 51° (NE) 07:35:43 437.345 MHz
JAS-1B 25 Jul 07:31:35 07:38:01 20° 323° (NW) 07:44:11 435.800 - 435.900 CW/SSB
Hamsat 25 Jul 07:38:03 07:42:20 70° 102° (ESE) 07:46:37 145.90 MHz
STRAND 1 25 Jul 07:42:48 07:47:51 56° 259° (W) 07:52:57 ?
Sapphire 25 Jul 07:44:15 07:47:18 15° 7° (N) 07:50:21 437.095 MHz 1200 baud AX-25 AFSK
SO-67 25 Jul 07:49:11 07:51:18 15° 90° (E) 07:53:25 435.3500 MHz FM
KITSAT 1 25 Jul 08:05:52 08:13:46 60° 119° (ESE) 08:21:41 435.175 FM
ISS 25 Jul 08:07:56 08:10:43 24° 215° (SW) 08:13:30 145.800 FM
PCSat 25 Jul 08:18:29 08:22:01 17° 16° (NNE) 08:25:33 145.825 MHz
Saudisat 1A 25 Jul 08:36:42 08:38:45 13° 110° (ESE) 08:40:48 436.775 MHz
AO-7 25 Jul 08:36:58 08:43:39 28° 315° (NW) 08:50:18 29.400 - 29.500 MHz
JAS-2 25 Jul 08:40:20 08:46:43 63° 292° (WNW) 08:52:20 435.800 - 435.900 CW/SSB, 435.910 FM
MaSat-1 25 Jul 09:03:05 09:07:46 32° 251° (WSW) 09:12:22 437.345 MHz
Hamsat 25 Jul 09:15:05 09:17:51 17° 301° (WNW) 09:20:37 145.90 MHz
SO-67 25 Jul 09:21:17 09:24:39 46° 288° (WNW) 09:27:59 435.3500 MHz FM
Sapphire 25 Jul 09:27:59 09:32:36 27° 32° (NNE) 09:37:12 437.095 MHz 1200 baud AX-25 AFSK
UKube-1 25 Jul 09:36:11 09:37:42 12° 87° (E) 09:39:12 145.840 MHz, 145.915 MHz
KITSAT 1 25 Jul 10:01:36 10:09:27 50° 323° (NW) 10:17:19 435.175 FM
PCSat 25 Jul 10:01:48 10:06:56 40° 41° (NE) 10:12:02 145.825 MHz
HO-68 25 Jul 10:02:18 10:08:51 37° 96° (E) 10:15:20 435.675 MHz FM
Saudisat 1A 25 Jul 10:13:12 10:17:37 80° 129° (SE) 10:22:05 436.775 MHz
Oscar 11 25 Jul 10:24:32 10:27:40 19° 91° (E) 10:30:47 145.825 FM, Beacon 2401.500 USB
JAS-2 25 Jul 10:26:50 10:30:26 16° 315° (NW) 10:33:51 435.800 - 435.900 CW/SSB, 435.910 FM
AO-7 25 Jul 10:31:18 10:33:41 12° 341° (NNW) 10:36:04 29.400 - 29.500 MHz
JAS-1B 25 Jul 11:08:40 11:10:57 11° 16° (NNE) 11:13:14 435.800 - 435.900 CW/SSB
UKube-1 25 Jul 11:10:12 11:14:36 87° 105° (ESE) 11:18:58 145.840 MHz, 145.915 MHz
Sapphire 25 Jul 11:11:14 11:16:42 86° 234° (SW) 11:22:08 437.095 MHz 1200 baud AX-25 AFSK
PCSat 25 Jul 11:45:17 11:50:30 49° 242° (WSW) 11:55:42 145.825 MHz
HO-68 25 Jul 11:49:54 11:56:53 57° 296° (WNW) 12:03:49 435.675 MHz FM
Saudisat 1A 25 Jul 11:53:58 11:57:42 26° 331° (NNW) 12:01:27 436.775 MHz
Oscar 11 25 Jul 11:59:57 12:04:12 55° 289° (WNW) 12:08:26 145.825 FM, Beacon 2401.500 USB
KITSAT 1 25 Jul 12:00:03 12:06:53 29° 351° (N) 12:13:43 435.175 FM
FUNcube-1 25 Jul 12:10:05 12:14:16 79° 103° (ESE) 12:18:27 145.950 - 145.970 MHz USB
Oscar 19 25 Jul 12:40:03 12:43:47 21° 57° (ENE) 12:47:33 437.125 CW, 437.150 USB
UKube-1 25 Jul 12:47:46 12:50:13 15° 305° (NW) 12:52:38 145.840 MHz, 145.915 MHz
JAS-1B 25 Jul 12:51:01 12:57:56 24° 41° (NE) 13:05:09 435.800 - 435.900 CW/SSB
Sapphire 25 Jul 12:55:59 12:59:22 17° 255° (WSW) 13:02:44 437.095 MHz 1200 baud AX-25 AFSK
Oscar 16 25 Jul 13:06:40 13:11:13 33° 63° (ENE) 13:15:47 437.025 USB, Beacon 2401.1428
ITAMSAT 1 25 Jul 13:20:00 13:24:03 23° 57° (ENE) 13:28:06 435.822 SSB
RS-15 25 Jul 13:25:54 13:33:32 22° 100° (E) 13:41:03 29.354 - 29.394 USB, Beacon 29.352 USB
AO-Echo 25 Jul 13:26:42 13:31:02 26° 59° (ENE) 13:35:24 ?
Saudisat 1A 25 Jul 13:36:17 13:38:44 14° 355° (N) 13:41:11 436.775 MHz
AO-27 25 Jul 13:37:30 13:42:03 31° 61° (ENE) 13:46:36 436.795 MHz FM
HO-68 25 Jul 13:38:56 13:43:12 17° 319° (NW) 13:47:28 435.675 MHz FM
Gurwin Techsat 1B 25 Jul 13:39:27 13:42:43 17° 53° (NE) 13:45:59 435.225 FM
Uribyol 2 25 Jul 13:39:44 13:44:21 33° 62° (ENE) 13:48:58 436.500 FM
FUNcube-1 25 Jul 13:47:50 13:50:09 15° 303° (WNW) 13:52:29 145.950 - 145.970 MHz USB
KITSAT 1 25 Jul 13:57:43 14:04:53 33° 20° (NNE) 14:12:02 435.175 FM
SO-50 25 Jul 14:05:45 14:09:32 27° 117° (ESE) 14:13:24 436.795 FM
AO-7 25 Jul 14:06:47 14:12:19 20° 36° (NE) 14:17:51 29.400 - 29.500 MHz
Oscar 19 25 Jul 14:17:31 14:22:38 74° 256° (WSW) 14:27:47 437.125 CW, 437.150 USB
JAS-1B 25 Jul 14:37:47 14:46:37 65° 65° (ENE) 14:56:22 435.800 - 435.900 CW/SSB
Oscar 16 25 Jul 14:45:38 14:50:29 42° 262° (W) 14:55:23 437.025 USB, Beacon 2401.1428
TMSAT-1 25 Jul 14:55:08 15:00:07 43° 66° (ENE) 15:05:07 436.925 FM
ITAMSAT 1 25 Jul 14:57:55 15:03:07 68° 257° (WSW) 15:08:20 435.822 SSB
AO-Echo 25 Jul 15:04:12 15:09:27 61° 259° (W) 15:14:45 ?
AO-27 25 Jul 15:16:22 15:21:24 48° 261° (W) 15:26:28 436.795 MHz FM
Gurwin Techsat 1B 25 Jul 15:16:36 15:21:55 81° 73° (ENE) 15:27:16 435.225 FM
Saudisat 1A 25 Jul 15:16:51 15:19:58 18° 19° (NNE) 15:23:05 436.775 MHz
Uribyol 2 25 Jul 15:18:46 15:23:43 44° 262° (W) 15:28:42 436.500 FM
Uosat F 25 Jul 15:20:58 15:24:45 22° 57° (ENE) 15:28:32 435.120 FM
RS-15 25 Jul 15:32:56 15:43:56 74° 124° (SE) 15:54:48 29.354 - 29.394 USB, Beacon 29.352 USB
SO-50 25 Jul 15:45:25 15:49:51 55° 318° (NW) 15:54:24 436.795 FM
KITSAT 1 25 Jul 15:53:36 16:01:44 71° 47° (NE) 16:09:47 435.175 FM
AO-7 25 Jul 15:55:22 16:03:28 57° 60° (ENE) 16:11:36 29.400 - 29.500 MHz
Oscar 19 25 Jul 16:01:04 16:02:54 12° 276° (W) 16:04:45 437.125 CW, 437.150 USB
UOSAT-12 25 Jul 16:27:13 16:31:38 47° 123° (ESE) 16:36:10 437.025 FM, 437.400 FM
JAS-1B 25 Jul 16:29:13 16:37:32 43° 268° (W) 16:46:47 435.800 - 435.900 CW/SSB
TMSAT-1 25 Jul 16:35:23 16:40:10 34° 265° (W) 16:44:59 436.925 FM
ITAMSAT 1 25 Jul 16:42:20 16:43:37 11° 277° (W) 16:44:55 435.822 SSB
Saudisat 1A 25 Jul 16:56:10 17:00:31 52° 42° (NE) 17:04:49 436.775 MHz
Uosat F 25 Jul 16:58:02 17:03:05 70° 256° (WSW) 17:08:09 435.120 FM
Gurwin Techsat 1B 25 Jul 16:59:01 17:02:33 18° 272° (W) 17:06:06 435.225 FM
Hamsat 25 Jul 17:03:00 17:05:04 14° 57° (ENE) 17:07:08 145.90 MHz
JAS-2 25 Jul 17:12:06 17:18:25 29° 56° (NE) 17:24:22 435.800 - 435.900 CW/SSB, 435.910 FM
SO-50 25 Jul 17:28:02 17:31:24 20° 341° (NNW) 17:34:48 436.795 FM
OPAL 25 Jul 17:31:11 17:36:06 50° 103° (ESE) 17:41:03 ?
RS-15 25 Jul 17:46:23 17:57:02 52° 332° (NNW) 18:07:43 29.354 - 29.394 USB, Beacon 29.352 USB
AO-7 25 Jul 17:48:41 17:56:32 43° 262° (W) 18:04:27 29.400 - 29.500 MHz
KITSAT 1 25 Jul 17:49:30 17:56:39 36° 249° (WSW) 18:03:47 435.175 FM
UOSAT-12 25 Jul 18:07:33 18:11:55 38° 324° (NW) 18:16:23 437.025 FM, 437.400 FM
SO-67 25 Jul 18:28:06 18:29:46 13° 60° (ENE) 18:31:27 435.3500 MHz FM
Saudisat 1A 25 Jul 18:36:07 18:39:54 28° 242° (WSW) 18:43:39 436.775 MHz
Hamsat 25 Jul 18:36:14 18:40:25 88° 257° (WSW) 18:44:39 145.90 MHz
Uosat F 25 Jul 18:41:27 18:42:49 11° 276° (W) 18:44:10 435.120 FM
HO-68 25 Jul 18:53:06 18:56:41 15° 38° (NE) 19:00:16 435.675 MHz FM
JAS-2 25 Jul 18:54:57 19:02:49 84° 255° (WSW) 19:10:11 435.800 - 435.900 CW/SSB, 435.910 FM
OPAL 25 Jul 19:10:29 19:14:48 29° 302° (WNW) 19:19:09 ?
SO-50 25 Jul 19:10:50 19:13:39 16° 6° (N) 19:16:30 436.795 FM
STRAND 1 25 Jul 19:48:22 19:53:02 34° 96° (E) 19:57:39 ?
UOSAT-12 25 Jul 19:50:09 19:53:19 18° 347° (NNW) 19:56:31 437.025 FM, 437.400 FM
SO-67 25 Jul 19:58:58 20:02:24 63° 259° (W) 20:05:53 435.3500 MHz FM
RS-15 25 Jul 20:02:07 20:12:15 40° 5° (N) 20:22:31 29.354 - 29.394 USB, Beacon 29.352 USB
Hamsat 25 Jul 20:16:00 20:17:05 11° 275° (W) 20:18:10 145.90 MHz
UKube-1 25 Jul 20:35:45 20:39:02 21° 60° (ENE) 20:42:20 145.840 MHz, 145.915 MHz
HO-68 25 Jul 20:36:00 20:42:47 48° 61° (ENE) 20:49:34 435.675 MHz FM
JAS-2 25 Jul 20:43:03 20:48:44 22° 274° (W) 20:54:13 435.800 - 435.900 CW/SSB, 435.910 FM
SO-50 25 Jul 20:51:37 20:55:41 28° 30° (NNE) 20:59:48 436.795 FM
Oscar 11 25 Jul 21:24:20 21:28:02 29° 64° (ENE) 21:31:45 145.825 FM, Beacon 2401.500 USB
STRAND 1 25 Jul 21:27:32 21:32:19 40° 295° (WNW) 21:37:03 ?
UOSAT-12 25 Jul 21:32:03 21:35:13 17° 12° (NNE) 21:38:22 437.025 FM, 437.400 FM
FUNcube-1 25 Jul 21:36:55 21:39:42 17° 59° (ENE) 21:42:27 145.950 - 145.970 MHz USB
UKube-1 25 Jul 22:10:37 22:14:55 56° 259° (WSW) 22:19:15 145.840 MHz, 145.915 MHz
RS-15 25 Jul 22:16:07 22:27:01 63° 37° (NE) 22:38:12 29.354 - 29.394 USB, Beacon 29.352 USB
HO-68 25 Jul 22:23:44 22:30:33 45° 261° (W) 22:37:25 435.675 MHz FM
SO-50 25 Jul 22:32:00 22:36:44 78° 231° (SW) 22:41:32 436.795 FM
MaSat-1 25 Jul 22:58:52 23:02:53 48° 114° (ESE) 23:07:31 437.345 MHz
Oscar 11 25 Jul 23:00:08 23:04:08 37° 263° (W) 23:08:10 145.825 FM, Beacon 2401.500 USB
FUNcube-1 25 Jul 23:11:20 23:15:40 70° 258° (WSW) 23:19:56 145.950 - 145.970 MHz USB
UOSAT-12 25 Jul 23:12:12 23:16:38 37° 35° (NE) 23:21:02 437.025 FM, 437.400 FM
